Back to catalog

FENGYUN 1C DEB

AliveSSO
NORAD 36267·DEBRIS·🇨🇳 China

Launched May 10, 1999 from Taiyuan Satellite Launch Center

Loading…

Next Passes (next 24 hours)

TLE

FreshSource: Space-Track

Epoch: Sep 14, 2026, 07:43 UTC

1 36267U 99025DWU 26257.32175002  .00000985  00000-0  53920-3 0  9995
2 36267  98.5733 196.5776 0126139 145.6493   5.6629 14.10080863904121

Track FENGYUN 1C DEB in real time with AllMySat

Download on the App Store